Lid_Strength_Index
14 15 14 14 15 15 15 15 15 15 15 15 14 15 15 15 15 15 16 16 16 16 16 16 16 15 14 14 15 14 14 15 16 14 17 17 17 16 16 14 14 14 13
15 15 15 14 14 15 14 14 14 14 13 15 14 14 15 15 15 15 16 16 16 16 16 16 16 14 15 15 14 15 15 14 15 16 14 18 18 17 15 15 15 15 14
13 13 14 15 15 14 13 13 13 13 15 15 15 15 15 15 16 15 15 15 16 15 15 15 16 15 15 15 14 14 15 14 15 16 16 17 18 18 17 17 15 16 15
13 13 14 14 14 14 14 14 14 14 14 14 14 15 15 15 15 16 16 16 16 15 15 15 15 15 15 15 15 14 14 15 14 15 16 15 18 18 17 17 18 17 16
13 13 14 13 13 14 14 14 14 14 14 14 14 14 14 15 16 16 15 15 15 15 15 15 15 14 13 13 14 14 14 14 14 14 15 15 17 18 17 17 16 16 16
13 13 12 12 12 12 12 12 12 13 13 14 14 14 15 14 13 12 13 15 15 16 16 15 15 15 14 13 12 12 11 14 14 14 14 14 14 15 14 14 15 17 18
12 12 12 12 13 13 13 14 14 14 14 15 14 14 15 15 12 12 11 13 14 16 16 15 15 14 14 15 13 12 11 10 9 11 13 13 13 13 14 15 14 14 14
13 14 14 14 15 14 15 16 16 16 16 17 17 16 16 15 13 12 13 14 14 14 15 15 16 16 15 14 13 14 14 13 13 11 11 11 11 11 11 12 13 14 13
14 14 15 16 17 17 19 18 18 18 19 19 18 18 19 19 16 15 15 16 16 16 15 15 16 17 15 13 15 15 15 14 11 9 9 9 8 7 8 10 13 14 15
15 15 16 17 21 20 19 20 20 20 20 19 20 20 20 21 17 16 16 17 18 17 16 16 14 15 14 13 15 15 15 14 12 12 11 10 9 10 8 8 10 13 14
17 17 17 18 20 21 21 21 21 22 21 22 22 21 21 20 20 16 15 16 17 17 17 17 16 14 14 13 12 14 13 12 11 11 11 11 11 11 11 10 8 10 12
18 19 20 22 22 20 22 22 22 23 23 23 23 22 21 20 18 16 15 14 14 17 17 17 17 14 13 13 13 13 11 11 12 11 10 11 11 11 10 10 9 8 9
24 25 25 23 21 21 23 22 22 22 23 23 23 23 22 20 20 16 14 14 14 15 15 15 12 12 12 13 13 13 14 15 14 12 11 10 10 10 9 9 8 8 8
29 25 23 22 21 22 21 21 22 23 23 23 23 23 22 20 18 17 16 16 14 14 14 15 14 13 12 13 14 14 15 15 14 14 11 9 9 9 9 9 9 8 9
25 22 22 21 22 21 20 21 21 19 19 20 19 18 19 19 18 14 13 14 14 12 12 12 14 16 18 17 17 16 15 15 16 12 11 9 9 9 10 9 9 9 10
24 22 21 21 20 21 21 22 17 16 15 14 14 15 16 14 13 13 12 11 11 10 12 13 14 14 15 15 16 16 15 15 15 11 10 11 11 9 10 9 9 10 12
27 23 21 20 21 22 22 23 24 20 16 16 15 15 15 14 14 13 13 12 12 12 15 15 15 15 15 15 16 16 16 15 13 12 11 11 10 8 9 9 10 10 12
28 23 23 22 22 22 23 23 23 24 24 22 18 17 16 15 15 13 14 15 21 19 19 18 17 16 15 15 15 15 15 14 14 13 11 10 9 7 9 9 10 10 11
26 25 25 22 22 23 23 23 23 23 23 23 22 20 19 17 15 17 16 22 22 21 20 19 18 18 17 16 15 15 15 14 13 12 12 10 9 8 8 9 9 10 10
28 23 22 24 24 25 25 25 24 24 24 24 23 23 22 19 23 22 22 22 22 22 21 20 19 17 15 14 13 14 14 14 13 13 11 10 9 9 9 9 10 11 10
28 27 24 24 28 27 26 26 25 25 25 24 24 22 16 22 23 22 22 22 22 22 21 21 19 18 16 15 14 12 12 13 12 11 10 9 10 10 9 9 10 10 11
29 29 28 28 28 28 29 28 26 26 25 25 24 23 17 22 22 22 21 21 21 21 20 20 20 18 17 16 16 14 13 13 12 11 12 12 12 12 11 11 11 12 13
27 27 25 28 30 29 29 31 29 27 26 26 25 24 23 23 22 22 21 21 21 20 20 20 20 18 16 16 15 15 15 15 13 12 12 12 12 12 12 13 13 14 14
24 24 26 30 32 31 32 30 29 28 28 27 27 25 24 23 23 22 21 21 21 21 20 20 20 19 18 16 16 15 14 14 13 13 13 13 14 13 13 14 14 14 15
25 26 28 31 34 33 34 33 30 31 30 29 27 26 26 25 25 24 23 22 22 22 21 20 20 19 18 16 16 16 15 15 14 14 14 14 15 15 15 15 16 16 16
25 26 29 31 33 35 36 34 33 31 31 28 28 27 26 26 25 25 24 23 22 22 22 21 21 20 19 16 15 13 13 14 15 15 16 16 16 16 16 17 17 17 18